H1 CPF 2 NER 2023 1 22 9 022 01 glonass140 H2 1903001 9140 44299 2023 1 22 0 0 0 2023 1 25 23 45 0 900 1 1 0 0 0 1 H9 10 0 59966 0.00000 0 -9393331.479 -6005286.768 22961067.853 10 0 59966 900.00000 0 -8378110.432 -8615951.395 22519969.102 10 0 59966 1800.00000 0 -7578809.837 -11215753.363 21642449.754 10 0 59966 2700.00000 0 -7001614.439 -13736659.661 20345552.036 10 0 59966 3600.00000 0 -6640480.122 -16111813.904 18654420.182 10 0 59966 4500.00000 0 -6477551.929 -18278118.304 16601816.849 10 0 59966 5400.00000 0 -6484089.235 -20178672.189 14227494.616 10 0 59966 6300.00000 0 -6621858.864 -21764966.914 11577433.851 10 0 59966 7200.00000 0 -6844937.573 -22998746.705 8702960.872 10 0 59966 8100.00000 0 -7101848.210 -23853458.637 5659762.457 10 0 59966 9000.00000 0 -7337939.821 -24315231.581 2506814.893 10 0 59966 9900.00000 0 -7497911.589 -24383343.285 -694752.325 10 0 59966 10800.00000 0 -7528374.159 -24070155.915 -3882836.704 10 0 59966 11700.00000 0 -7380340.042 -23400522.404 -6995564.301 10 0 59966 12600.00000 0 -7011537.448 -22410688.027 -9972489.320 10 0 59966 13500.00000 0 -6388448.987 -21146732.846 -12755768.408 10 0 59966 14400.00000 0 -5487987.980 -19662619.870 -15291286.701 10 0 59966 15300.00000 0 -4298740.165 -18017930.497 -17529713.321 10 0 59966 16200.00000 0 -2821716.675 -16275381.983 -19427465.562 10 0 59966 17100.00000 0 -1070584.574 -14498230.906 -20947562.654 10 0 59966 18000.00000 0 928636.773 -12747671.480 -22060352.110 10 0 59966 18900.00000 0 3138402.844 -11080337.850 -22744094.173 10 0 59966 19800.00000 0 5510961.978 -9546015.081 -22985392.631 10 0 59966 20700.00000 0 7990110.721 -8185654.972 -22779463.147 10 0 59966 21600.00000 0 10513314.644 -7029779.876 -22130233.449 10 0 59966 22500.00000 0 13014107.086 -6097341.450 -21050272.901 10 0 59966 23400.00000 0 15424666.286 -5395082.130 -19560552.331 10 0 59966 24300.00000 0 17678463.663 -4917425.785 -17690038.328 10 0 59966 25200.00000 0 19712872.651 -4646901.651 -15475129.537 10 0 59966 26100.00000 0 21471628.798 -4555082.972 -12958945.733 10 0 59966 27000.00000 0 22907037.944 -4603999.770 -10190483.585 10 0 59966 27900.00000 0 23981839.806 -4747964.953 -7223655.763 10 0 59966 28800.00000 0 24670648.624 -4935735.250 -4116232.773 10 0 59966 29700.00000 0 24960910.648 -5112914.095 -928708.855 10 0 59966 30600.00000 0 24853338.648 -5224493.288 2276884.993 10 0 59966 31500.00000 0 24361805.969 -5217424.414 5438196.627 10 0 59966 32400.00000 0 23512705.649 -5043109.877 8493772.372 10 0 59966 33300.00000 0 22343802.793 -4659707.080 11384256.055 10 0 59966 34200.00000 0 20902629.807 -4034147.541 14053543.458 10 0 59966 35100.00000 0 19244493.172 -3143785.153 16449869.563 10 0 59966 36000.00000 0 17430176.481 -1977603.764 18526807.610 10 0 59966 36900.00000 0 15523436.780 -536933.134 20244161.063 10 0 59966 37800.00000 0 13588399.349 1164356.880 21568732.099 10 0 59966 38700.00000 0 11686959.631 3100192.189 22474952.865 10 0 59966 39600.00000 0 9876300.218 5233146.511 22945368.487 10 0 59966 40500.00000 0 8206625.380 7515774.465 22970963.759 10 0 59966 41400.00000 0 6719206.129 9892370.867 22551328.307 10 0 59966 42300.00000 0 5444815.744 12301083.817 21694657.853 10 0 59966 43200.00000 0 4402619.217 14676294.907 20417592.106 10 0 59966 44100.00000 0 3599561.312 16951168.872 18744892.523 10 0 59966 45000.00000 0 3030277.383 19060268.001 16708965.976 10 0 59966 45900.00000 0 2677529.498 20942123.948 14349242.974 10 0 59966 46800.00000 0 2513148.775 22541661.056 11711421.681 10 0 59966 47700.00000 0 2499443.965 23812371.187 8846591.453 10 0 59966 48600.00000 0 2591016.849 24718149.992 5810251.936 10 0 59966 49500.00000 0 2736908.076 25234718.321 2661245.762 10 0 59966 50400.00000 0 2882983.093 25350569.293 -539375.096 10 0 59966 51300.00000 0 2974457.586 25067401.157 -3729527.918 10 0 59966 52200.00000 0 2958455.679 24400017.306 -6847300.284 10 0 59966 53100.00000 0 2786492.545 23375696.945 -9832150.257 10 0 59966 54000.00000 0 2416775.918 22033062.119 -12626082.423 10 0 59966 54900.00000 0 1816228.336 20420487.816 -15174776.755 10 0 59966 55800.00000 0 962143.501 18594121.205 -17428647.991 10 0 59966 56700.00000 0 -156594.674 16615592.424 -19343814.687 10 0 59966 57600.00000 0 -1538783.531 14549512.431 -20882958.711 10 0 59966 58500.00000 0 -3170696.210 12460862.391 -22016058.107 10 0 59966 59400.00000 0 -5026409.945 10412383.750 -22720978.682 10 0 59966 60300.00000 0 -7068656.325 8462078.025 -22983912.475 10 0 59966 61200.00000 0 -9250159.649 6660920.973 -22799654.079 10 0 59966 62100.00000 0 -11515408.898 5050886.666 -22171709.031 10 0 59966 63000.00000 0 -13802790.463 3663364.049 -21112231.636 10 0 59966 63900.00000 0 -16046993.194 2518032.123 -19641792.952 10 0 59966 64800.00000 0 -18181585.709 1622240.483 -17788982.980 10 0 59966 65700.00000 0 -20141658.276 970920.584 -15589854.427 10 0 59966 66600.00000 0 -21866418.454 547030.717 -13087218.686 10 0 59966 67500.00000 0 -23301631.455 322514.822 -10329807.753 10 0 59966 68400.00000 0 -24401802.468 259733.475 -7371318.651 10 0 59966 69300.00000 0 -25132008.971 313305.176 -4269359.547 10 0 59966 70200.00000 0 -25469305.878 432278.503 -1084318.869 10 0 59966 71100.00000 0 -25403644.503 562541.617 2121819.621 10 0 59966 72000.00000 0 -24938267.054 649365.551 5286691.602 10 0 59966 72900.00000 0 -24089560.726 639972.159 8348772.168 10 0 59966 73800.00000 0 -22886378.425 486016.793 11248576.424 10 0 59966 74700.00000 0 -21368855.762 145879.778 13929816.635 10 0 59966 75600.00000 0 -19586775.092 -413330.829 16340493.240 10 0 59966 76500.00000 0 -17597546.186 -1214150.082 18433898.662 10 0 59966 77400.00000 0 -15463888.917 -2267569.350 20169514.902 10 0 59966 78300.00000 0 -13251315.230 -3572341.846 21513788.384 10 0 59966 79200.00000 0 -11025515.534 -5114809.611 22440768.199 10 0 59966 80100.00000 0 -8849758.018 -6869259.239 22932596.567 10 0 59966 81000.00000 0 -6782408.278 -8798791.706 22979843.309 10 0 59966 81900.00000 0 -4874671.138 -10856670.486 22581678.975 10 0 59966 82800.00000 0 -3168647.053 -12988092.356 21745884.117 10 0 59966 83700.00000 0 -1695782.185 -15132308.126 20488695.071 10 0 59966 84600.00000 0 -475774.863 -17225006.114 18834489.379 10 0 59966 85500.00000 0 484017.591 -19200860.318 16815316.728 10 0 59967 0.00000 0 1188648.397 -20996138.268 14470284.189 10 0 59967 900.00000 0 1655125.747 -22551261.963 11844805.511 10 0 59967 1800.00000 0 1911451.155 -23813213.599 8989731.382 10 0 59967 2700.00000 0 1995193.853 -24737689.541 5960372.305 10 0 59967 3600.00000 0 1951660.404 -25290910.383 2815435.182 10 0 59967 4500.00000 0 1831737.083 -25451012.299 -384107.644 10 0 59967 5400.00000 0 1689495.947 -25208960.934 -3576195.372 10 0 59967 6300.00000 0 1579665.676 -24568948.869 -6698879.267 10 0 59967 7200.00000 0 1555074.190 -23548259.158 -9691523.469 10 0 59967 8100.00000 0 1664171.522 -22176599.693 -12495982.748 10 0 59967 9000.00000 0 1948738.289 -20494935.265 -15057734.171 10 0 59967 9900.00000 0 2441877.523 -18553865.341 -17326940.332 10 0 59967 10800.00000 0 3166375.889 -16411614.624 -19259423.177 10 0 59967 11700.00000 0 4133504.941 -14131719.748 -20817529.193 10 0 59967 12600.00000 0 5342314.610 -11780508.373 -21970868.690 10 0 59967 13500.00000 0 6779450.474 -9424475.604 -22696914.499 10 0 59967 14400.00000 0 8419504.380 -7127667.054 -22981448.040 10 0 59967 15300.00000 0 10225885.425 -4949177.720 -22818843.638 10 0 59967 16200.00000 0 12152176.343 -2940870.938 -22212185.118 10 0 59967 17100.00000 0 14143919.805 -1145412.537 -21173211.897 10 0 59967 18000.00000 0 16140760.683 405297.824 -19722095.118 10 0 59967 18900.00000 0 18078855.137 1691232.922 -17887047.726 10 0 59967 19800.00000 0 19893445.821 2704836.107 -15703775.663 10 0 59967 20700.00000 0 21521495.033 3451086.932 -13214780.723 10 0 59967 21600.00000 0 22904265.019 3947032.673 -10468528.598 10 0 59967 22500.00000 0 23989736.549 4220806.724 -7518498.578 10 0 59967 23400.00000 0 24734763.539 4310176.768 -4422134.005 10 0 59967 24300.00000 0 25106872.669 4260685.693 -1239714.643 10 0 59967 25200.00000 0 25085631.982 4123465.612 1966826.105 10 0 59967 26100.00000 0 24663530.844 3952819.139 5135115.022 10 0 59967 27000.00000 0 23846334.475 3803671.903 8203559.299 10 0 59967 27900.00000 0 22652898.698 3729005.512 11112548.573 10 0 59967 28800.00000 0 21114453.398 3777380.639 13805614.688 10 0 59967 29700.00000 0 19273385.663 3990655.709 16230526.404 10 0 59967 30600.00000 0 17181574.405 4401997.964 18340297.905 10 0 59967 31500.00000 0 14898346.934 5034270.890 20094091.958 10 0 59967 32400.00000 0 12488143.266 5898865.863 21458001.106 10 0 59967 33300.00000 0 10017985.648 6995026.936 22405692.846 10 0 59967 34200.00000 0 7554858.417 8309696.923 22918907.519 10 0 59967 35100.00000 0 5163106.367 9817891.193 22987800.525 10 0 59967 36000.00000 0 2901958.542 11483583.724 22611123.396 10 0 59967 36900.00000 0 823278.872 13261068.775 21796241.051 10 0 59967 37800.00000 0 -1030364.672 15096742.039 20558985.492 10 0 59967 38700.00000 0 -2627234.006 16931227.921 18923348.915 10 0 59967 39600.00000 0 -3947495.840 18701765.205 16921021.980 10 0 59967 40500.00000 0 -4983794.468 20344752.764 14590785.689 10 0 59967 41400.00000 0 -5741299.914 21798350.146 11977767.792 10 0 59967 42300.00000 0 -6237230.454 23005025.270 9132577.296 10 0 59967 43200.00000 0 -6499870.318 23913943.443 6110332.826 10 0 59967 44100.00000 0 -6567124.259 24483098.046 2969602.765 10 0 59967 45000.00000 0 -6484669.989 24681093.608 -228722.983 10 0 59967 45900.00000 0 -6303786.422 24488506.175 -3422608.314 10 0 59967 46800.00000 0 -6078949.355 23898763.199 -6550070.877 10 0 59967 47700.00000 0 -5865296.194 22918505.060 -9550383.443 10 0 59967 48600.00000 0 -5716067.048 21567411.899 -12365253.333 10 0 59967 49500.00000 0 -5680130.759 19877501.741 -14939956.861 10 0 59967 50400.00000 0 -5799701.057 17891928.079 -17224406.364 10 0 59967 51300.00000 0 -6108340.201 15663326.079 -19174128.824 10 0 59967 52200.00000 0 -6629335.584 13251775.496 -20751136.731 10 0 59967 53100.00000 0 -7374519.071 10722464.633 -21924673.800 10 0 59967 54000.00000 0 -8343580.398 8143152.180 -22671820.762 10 0 59967 54900.00000 0 -9523905.114 5581532.326 -22977949.022 10 0 59967 55800.00000 0 -10890945.461 3102612.766 -22837012.931 10 0 59967 56700.00000 0 -12409110.088 766214.652 -22251674.546 10 0 59967 57600.00000 0 -14033136.546 -1375301.454 -21233257.951 10 0 59967 58500.00000 0 -15709889.879 -3278988.890 -19801533.517 10 0 59967 59400.00000 0 -17380512.508 -4912866.263 -17984335.865 10 0 59967 60300.00000 0 -18982835.436 -6257002.489 -15817022.542 10 0 59967 61200.00000 0 -20453949.410 -7304090.728 -13341783.773 10 0 59967 62100.00000 0 -21732827.626 -8059488.125 -10606816.718 10 0 59967 63000.00000 0 -22762889.131 -8540720.926 -7665380.515 10 0 59967 63900.00000 0 -23494394.302 -8776477.224 -4574751.101 10 0 59967 64800.00000 0 -23886570.884 -8805131.511 -1395096.897 10 0 59967 65700.00000 0 -23909380.437 -8672865.120 1811701.828 10 0 59967 66600.00000 0 -23544850.431 -8431463.782 4983265.792 10 0 59967 67500.00000 0 -22787915.731 -8135887.196 8057937.151 10 0 59967 68400.00000 0 -21646734.254 -7841714.948 10975982.930 10 0 59967 69300.00000 0 -20142463.894 -7602578.054 13680757.317 10 0 59967 70200.00000 0 -18308510.658 -7467685.571 16119799.979 10 0 59967 71100.00000 0 -16189280.127 -7479551.294 18245849.167 10 0 59967 72000.00000 0 -13838485.097 -7672016.546 20017750.354 10 0 59967 72900.00000 0 -11317080.467 -8068652.239 21401243.684 10 0 59967 73800.00000 0 -8690911.520 -8681607.093 22369616.045 10 0 59967 74700.00000 0 -6028173.307 -9510949.958 22904206.346 10 0 59967 75600.00000 0 -3396786.022 -10544533.486 22994755.513 10 0 59967 76500.00000 0 -861794.253 -11758384.662 22639595.527 10 0 59967 77400.00000 0 1517103.261 -13117605.889 21845674.738 10 0 59967 78300.00000 0 3687792.596 -14577749.289 20628419.528 10 0 59967 79200.00000 0 5607661.182 -16086607.391 19011435.169 10 0 59967 80100.00000 0 7245114.017 -17586346.182 17026051.480 10 0 59967 81000.00000 0 8580628.244 -19015892.342 14710721.594 10 0 59967 81900.00000 0 9607303.635 -20313475.837 12110284.646 10 0 59967 82800.00000 0 10330887.191 -21419222.358 9275105.819 10 0 59967 83700.00000 0 10769271.762 -22277687.759 6260109.420 10 0 59967 84600.00000 0 10951490.363 -22840228.675 3123722.804 10 0 59967 85500.00000 0 10916248.705 -23067109.941 -73249.077 10 0 59968 0.00000 0 10710057.939 -22929260.064 -3268796.995 10 0 59968 900.00000 0 10385046.192 -22409600.191 -6400907.951 10 0 59968 1800.00000 0 9996541.515 -21503890.018 -9408765.331 10 0 59968 2700.00000 0 9600528.059 -20221053.576 -12233931.168 10 0 59968 3600.00000 0 9251083.358 -18582969.866 -14821483.023 10 0 59968 4500.00000 0 8997905.284 -16623735.605 -17121084.817 10 0 59968 5400.00000 0 8884033.746 -14388429.467 -19087970.212 10 0 59968 6300.00000 0 8943864.134 -11931428.074 -20683819.086 10 0 59968 7200.00000 0 9201537.317 -9314342.988 -21877509.670 10 0 59968 8100.00000 0 9669775.247 -6603663.774 -22645731.384 10 0 59968 9000.00000 0 10349212.489 -3868204.609 -22973446.073 10 0 59968 9900.00000 0 11228253.123 -1176460.392 -22854188.237 10 0 59968 10800.00000 0 12283460.284 1406017.979 -22290197.979 10 0 59968 11700.00000 0 13480463.093 3819120.072 -21292383.571 10 0 59968 12600.00000 0 14775343.722 6010440.240 -19880113.882 10 0 59968 13500.00000 0 16116446.913 7937215.636 -18080844.218 10 0 59968 14400.00000 0 17446536.128 9567857.365 -15929582.475 10 0 59968 15300.00000 0 18705205.574 10883011.201 -13468205.791 10 0 59968 16200.00000 0 19831446.191 11876104.255 -10744640.975 10 0 59968 17100.00000 0 20766256.939 12553355.700 -7811924.895 10 0 59968 18000.00000 0 21455190.506 12933252.376 -4727163.690 10 0 59968 18900.00000 0 21850725.296 13045512.954 -1550411.794 10 0 59968 19800.00000 0 21914362.836 12929586.085 1656506.468 10 0 59968 20700.00000 0 21618361.520 12632747.733 4831208.654 10 0 59968 21600.00000 0 20947033.154 12207879.912 7911974.777 10 0 59968 22500.00000 0 19897547.482 11711026.356 10838952.055 10 0 59968 23400.00000 0 18480210.914 11198829.819 13555319.669 10 0 59968 24300.00000 0 16718207.997 10725960.332 16008390.636 10 0 59968 25200.00000 0 14646816.796 10342643.608 18150629.465 10 0 59968 26100.00000 0 12312131.468 10092394.086 19940566.254 10 0 59968 27000.00000 0 9769345.640 10010047.931 21343590.349 10 0 59968 27900.00000 0 7080668.204 10120178.314 22332609.288 10 0 59968 28800.00000 0 4312958.088 10435958.915 22888561.436 10 0 59968 29700.00000 0 1535175.700 10958522.680 23000773.694 10 0 59968 30600.00000 0 -1184244.205 11676842.118 22667158.485 10 0 59968 31500.00000 0 -3779990.433 12568135.769 21894247.080 10 0 59968 32400.00000 0 -6192337.937 13598783.703 20697059.228 10 0 59968 33300.00000 0 -8369374.665 14725713.944 19098811.778 10 0 59968 34200.00000 0 -10268901.924 15898202.262 17130471.774 10 0 59968 35100.00000 0 -11859931.053 17060010.676 14830162.186 10 0 59968 36000.00000 0 -13123715.626 18151775.955 12242430.971 10 0 59968 36900.00000 0 -14054277.394 19113548.795 9417396.756 10 0 59968 37800.00000 0 -14658405.007 19887377.891 6409786.719 10 0 59968 38700.00000 0 -14955126.298 20419830.895 3277884.362 10 0 59968 39600.00000 0 -14974676.612 20664346.505 82406.887 10 0 59968 40500.00000 0 -14757006.781 20583318.589 -3114666.651 10 0 59968 41400.00000 0 -14349893.590 20149824.120 -6251294.082 10 0 59968 42300.00000 0 -13806732.295 19348921.246 -9266572.505 10 0 59968 43200.00000 0 -13184104.327 18178461.665 -12101920.997 10 0 59968 44100.00000 0 -12539222.851 16649381.568 -14702220.505 10 0 59968 45000.00000 0 -11927364.187 14785457.302 -17016888.419 10 0 59968 45900.00000 0 -11399393.854 12622534.219 -19000866.682 10 0 59968 46800.00000 0 -10999492.122 10207259.284 -20615503.878 10 0 59968 47700.00000 0 -10763175.663 7595368.918 -21829313.759 10 0 59968 48600.00000 0 -10715699.526 4849602.210 -22618595.129 10 0 59968 49500.00000 0 -10870907.661 2037325.385 -22967900.647 10 0 59968 50400.00000 0 -11230581.359 -772034.246 -22870345.005 10 0 59968 51300.00000 0 -11784313.985 -3509638.624 -22327746.025 10 0 59968 52200.00000 0 -12509918.145 -6109863.625 -21350595.477 10 0 59968 53100.00000 0 -13374348.832 -8512788.950 -19957859.629 10 0 59968 54000.00000 0 -14335104.175 -10666449.690 -18176613.018 10 0 59968 54900.00000 0 -15342045.036 -12528755.868 -16041512.083 10 0 59968 55800.00000 0 -16339556.663 -14069000.033 -13594118.777 10 0 59968 56700.00000 0 -17268960.916 -15268890.395 -10882087.239 10 0 59968 57600.00000 0 -18071076.655 -16123066.981 -7958229.583 10 0 59968 58500.00000 0 -18688819.368 -16639080.171 -4879479.555 10 0 59968 59400.00000 0 -19069729.343 -16836833.880 -1705774.945 10 0 59968 60300.00000 0 -19168320.643 -16747518.436 1501118.567 10 0 59968 61200.00000 0 -18948150.825 -16412079.850 4678818.104 10 0 59968 62100.00000 0 -18383523.358 -15879291.918 7765544.272 10 0 59968 63000.00000 0 -17460750.440 -15203514.247 10701327.184 10 0 59968 63900.00000 0 -16178922.818 -14442232.392 13429173.624 10 0 59968 64800.00000 0 -14550154.178 -13653485.139 15896172.404 10 0 59968 65700.00000 0 -12599289.970 -12893288.243 18054516.486 10 0 59968 66600.00000 0 -10363093.058 -12213163.542 19862422.443 10 0 59968 67500.00000 0 -7888940.387 -11657877.386 21284930.277 10 0 59968 68400.00000 0 -5233084.977 -11263482.963 22294569.155 10 0 59968 69300.00000 0 -2458555.415 -11055748.010 22871877.392 10 0 59968 70200.00000 0 367220.403 -11049032.916 23005767.883 10 0 59968 71100.00000 0 3174969.571 -11245665.333 22693733.055 10 0 59968 72000.00000 0 5896201.695 -11635836.635 21941886.256 10 0 59968 72900.00000 0 8465802.154 -12198024.004 20764839.399 10 0 59968 73800.00000 0 10824485.274 -12899920.155 19185419.389 10 0 59968 74700.00000 0 12921007.198 -13699831.787 17234228.705 10 0 59968 75600.00000 0 14714048.273 -14548488.493 14949058.100 10 0 59968 76500.00000 0 16173688.171 -15391186.803 12374162.061 10 0 59968 77400.00000 0 17282413.478 -16170180.037 9559410.137 10 0 59968 78300.00000 0 18035616.785 -16827214.229 6559329.651 10 0 59968 79200.00000 0 18441567.075 -17306104.005 3432057.369 10 0 59968 80100.00000 0 18520853.065 -17555240.294 238219.779 10 0 59968 81000.00000 0 18305323.077 -17529924.258 -2960236.926 10 0 59968 81900.00000 0 17836566.004 -17194428.651 -6101244.862 10 0 59968 82800.00000 0 17163997.201 -16523698.998 -9123817.267 10 0 59968 83700.00000 0 16342629.817 -15504621.725 -11969232.748 10 0 59968 84600.00000 0 15430625.405 -14136804.349 -14582177.853 10 0 59968 85500.00000 0 14486727.080 -12432833.190 -16911825.355 10 0 59969 0.00000 0 13567683.636 -10417996.088 -18912826.901 10 0 59969 900.00000 0 12725772.953 -8129478.634 -20546201.389 10 0 59969 1800.00000 0 12006530.689 -5615068.577 -21780098.770 10 0 59969 2700.00000 0 11446778.752 -2931417.210 -22590427.728 10 0 59969 3600.00000 0 11073038.388 -141931.513 -22961331.846 10 0 59969 4500.00000 0 10900394.837 2685617.203 -22885505.720 10 0 59969 5400.00000 0 10931862.013 5481669.236 -22364344.262 10 0 59969 6300.00000 0 11158274.502 8177530.384 -21407921.763 10 0 59969 7200.00000 0 11558711.897 10707993.494 -20034800.646 10 0 59969 8100.00000 0 12101437.812 13013818.681 -18271673.142 10 0 59969 9000.00000 0 12745314.088 15043968.951 -16152842.472 10 0 59969 9900.00000 0 13441630.316 16757507.895 -13719553.397 10 0 59969 10800.00000 0 14136271.015 18125080.463 -11019185.154 10 0 59969 11700.00000 0 14772128.224 19129915.277 -8104322.657 10 0 59969 12600.00000 0 15291656.634 19768307.098 -5031724.628 10 0 59969 13500.00000 0 15639462.218 20049560.296 -1861209.433 10 0 59969 14400.00000 0 15764813.800 19995397.008 1345518.739 10 0 59969 15300.00000 0 15623970.347 19638856.434 4526079.422 10 0 59969 16200.00000 0 15182224.752 19022733.383 7618636.565 10 0 59969 17100.00000 0 14415577.074 18197623.628 10563105.763 10 0 59969 18000.00000 0 13311966.203 17219660.041 13302323.783 10 0 59969 18900.00000 0 11872007.833 16148036.319 15783157.346 10 0 59969 19800.00000 0 10109207.587 15042423.538 17957529.720 10 0 59969 20700.00000 0 8049640.399 13960388.841 19783345.522 10 0 59969 21600.00000 0 5731109.588 12954924.809 21225296.667 10 0 59969 22500.00000 0 3201820.562 12072192.874 22255534.907 10 0 59969 23400.00000 0 518624.284 11349574.660 22854199.112 10 0 59969 24300.00000 0 -2255097.048 10814111.844 23009788.392 10 0 59969 25200.00000 0 -5051815.084 10481398.683 22719374.982 10 0 59969 26100.00000 0 -7802413.266 10354972.366 21988653.659 10 0 59969 27000.00000 0 -10438812.900 10426225.670 20831827.375 10 0 59969 27900.00000 0 -12896560.042 10674844.777 19271331.509 10 0 59969 28800.00000 0 -15117267.371 11069753.458 17337401.936 10 0 59969 29700.00000 0 -17050811.284 11570523.901 15067494.798 10 0 59969 30600.00000 0 -18657194.320 12129195.164 12505568.415 10 0 59969 31500.00000 0 -19907996.527 12692423.264 9701240.384 10 0 59969 32400.00000 0 -20787356.246 13203872.986 6708835.202 10 0 59969 33300.00000 0 -21292439.973 13606751.225 3586339.935 10 0 59969 34200.00000 0 -21433381.976 13846375.445 394287.449 10 0 59969 35100.00000 0 -21232696.349 13872669.064 -2805411.740 10 0 59969 36000.00000 0 -20724186.106 13642478.232 -5950666.730 10 0 59969 36900.00000 0 -19951394.953 13121611.653 -8980409.438 10 0 59969 37800.00000 0 -18965666.651 12286516.404 -11835780.392 10 0 59969 38700.00000 0 -17823893.402 11125517.692 -14461273.903 10 0 59969 39600.00000 0 -16586047.894 9639568.726 -16805820.038 10 0 59969 40500.00000 0 -15312602.825 7842477.211 -18823782.074 10 0 59969 41400.00000 0 -14061946.554 5760596.933 -20475849.736 10 0 59969 42300.00000 0 -12887903.796 3431995.373 -21729810.424 10 0 59969 43200.00000 0 -11837465.862 905130.236 -22561183.147 10 0 59969 44100.00000 0 -10948826.205 -1762911.551 -22953702.447 10 0 59969 45000.00000 0 -10249804.231 -4508540.263 -22899642.463 10 0 59969 45900.00000 0 -9756723.941 -7264067.720 -22399974.427 10 0 59969 46800.00000 0 -9473794.847 -9960290.209 -21464354.007 10 0 59969 47700.00000 0 -9393021.377 -12529142.755 -20110938.260 10 0 59969 48600.00000 0 -9494644.589 -14906314.412 -18366035.285 10 0 59969 49500.00000 0 -9748097.415 -17033715.604 -16263592.965 10 0 59969 50400.00000 0 -10113432.761 -18861694.391 -13844536.554 10 0 59969 51300.00000 0 -10543163.567 -20350909.112 -11155967.929 10 0 59969 52200.00000 0 -10984436.237 -21473779.166 -8250242.279 10 0 59969 53100.00000 0 -11381444.523 -22215453.433 -5183940.765 10 0 59969 54000.00000 0 -11677980.578 -22574256.401 -2016759.832 10 0 59969 54900.00000 0 -11820014.004 -22561594.200 1189660.285 10 0 59969 55800.00000 0 -11758188.560 -22201325.731 4372943.930 10 0 59969 56700.00000 0 -11450129.843 -21528626.874 7471200.750 10 0 59969 57600.00000 0 -10862465.490 -20588397.180 10424234.121 10 0 59969 58500.00000 0 -9972471.927 -19433277.707 13174712.994 10 0 59969 59400.00000 0 -8769277.808 -18121364.888 15669284.089 10 0 59969 60300.00000 0 -7254573.193 -16713717.648 17859602.868 10 0 59969 61200.00000 0 -5442794.610 -15271763.299 19703263.632 10 0 59969 62100.00000 0 -3360778.142 -13854711.320 21164611.548 10 0 59969 63000.00000 0 -1046894.874 -12517083.184 22215421.925 10 0 59969 63900.00000 0 1450295.425 -11306461.020 22835434.778 10 0 59969 64800.00000 0 4073816.854 -10261548.203 23012735.635 10 0 59969 65700.00000 0 6760403.231 -9410621.644 22743976.352 10 0 59969 66600.00000 0 9442889.881 -8770439.034 22034432.590 10 0 59969 67500.00000 0 12052773.404 -8345645.328 20897897.463 10 0 59969 68400.00000 0 14522834.624 -8128702.039 19356413.629 10 0 59969 69300.00000 0 16789717.310 -8100341.371 17439848.877 10 0 59969 70200.00000 0 18796357.075 -8230525.552 15185322.962 10 0 59969 71100.00000 0 20494160.848 -8479870.822 12636495.973 10 0 59969 72000.00000 0 21844847.275 -8801476.346 9842731.196 10 0 59969 72900.00000 0 22821872.235 -9143081.317 6858147.670 10 0 59969 73800.00000 0 23411380.532 -9449459.782 3740579.861 10 0 59969 74700.00000 0 23612644.186 -9664952.532 550463.927 10 0 59969 75600.00000 0 23437969.042 -9736029.368 -2650328.478 10 0 59969 76500.00000 0 22912073.386 -9613773.472 -5799686.614 10 0 59969 77400.00000 0 22070964.335 -9256182.550 -8836464.148 10 0 59969 78300.00000 0 20960358.798 -8630188.769 -11701666.363 10 0 59969 79200.00000 0 19633714.963 -7713311.071 -14339597.882 10 0 59969 80100.00000 0 18149956.711 -6494868.678 -16698948.257 10 0 59969 81000.00000 0 16570986.340 -4976702.875 -18733794.052 10 0 59969 81900.00000 0 14959089.939 -3173374.708 -20404497.607 10 0 59969 82800.00000 0 13374344.383 -1111828.233 -21678484.608 10 0 59969 83700.00000 0 11872134.853 1169468.624 -22530885.021 10 0 59969 84600.00000 0 10500887.194 3621871.603 -22945024.573 10 0 59969 85500.00000 0 9300110.447 6188341.352 -22912756.765 99